Location: Ergnies
(50.0854°N, 2.0375°E)
Time: 20:47:36
(UTC+00:00)

Cosmos 1707 Rocket - Pass Details

Date: 14 January 2026
Orbit: 599 x 624 km, 82.5° (Epoch: 13 February)

Event Time Altitude Azimuth Distance (km) Brightness Sun altitude
Rises 06:52:27 0° 344° (NNW) 2,860 6.6 -8.3°
Reaches altitude 10° 06:54:45 10° 337° (NNW) 1,953 5.7 -8.0°
Maximum altitude 06:58:47 40° 268° (W) 890 4.0 -7.4°
Drops below altitude 10° 07:02:49 10° 198° (SSW) 1,947 6.2 -6.8°
Sets 07:05:07 0° 191° (S) 2,849 7.2 -6.5°
